Overview Statistics Trail Chart Weather Telemetry Raw packets
 

This is the latest recevied weather packets stored in our database for station/object JS2QVS-13. If no packets are shown the sender has not sent any weather packets the latest 10 day(s).

<< 3 4 5 6 7 8 9 >>
Time Temp. Humidity Pressure Rain* Wind** Luminosity Snow
1788506457 25.56° C 78% 1004 hPa 0 mm - - -
1788505857 25.56° C 78% 1004.1 hPa 0.25 mm - - -
1788505257 25.56° C 77% 1003.7 hPa 0.25 mm - - -
1788504657 25.56° C 80% 1004 hPa 0.25 mm - - -
1788504056 25.56° C 81% 1004.1 hPa 0.25 mm - - -
1788503456 25° C 81% 1004.4 hPa 0.25 mm - - -
1788502856 25.56° C 81% 1004.2 hPa 0.25 mm - - -
1788502256 25.56° C 81% 1004.1 hPa 0 mm - - -
1788501658 25.56° C 79% 1004.2 hPa 0 mm - - -
1788501058 25.56° C 79% 1004.6 hPa 0.25 mm - - -
1788500458 25.56° C 81% 1004.7 hPa 0.25 mm - - -
1788499858 25.56° C 81% 1004.8 hPa 0.25 mm - - -
1788499257 25.56° C 81% 1004.5 hPa 0.25 mm - - -
1788498657 25° C 81% 1004.4 hPa 0.25 mm - - -
1788498056 25.56° C 81% 1004.1 hPa 0.25 mm - - -
1788497458 25.56° C 80% 1004.1 hPa 0 mm - - -
1788496858 25.56° C 80% 1005.4 hPa 0 mm - - -
1788496258 25.56° C 79% 1005.2 hPa 0 mm - - -
1788495658 26.11° C 79% 1005.2 hPa 0 mm - - -
1788495058 26.11° C 78% 1004.9 hPa 0 mm - - -
1788494458 26.11° C 78% 1004.9 hPa 0 mm - - -
1788493858 26.11° C 76% 1005 hPa 0 mm - - -
1788493257 26.11° C 79% 1004.8 hPa 0 mm - - -
1788492657 26.11° C 80% 1004.8 hPa 0 mm - - -
1788492057 26.11° C 81% 1005.1 hPa 0 mm - - -

* Rain latest hour (hover to see other rain measurements)
** Current wind speed in m/s (hover to see current wind gust speed)